Fullerton, CA

10:18 AM PST on December 02, 2016 (GMT -0800)
Fullerton Municipal

Weather History for KFUL - April, 2012

Change the Weather History Date:

Monday, April 23, 2012

  Actual Average Record
Temperature  
Mean Temperature 63 °F 64 °F  
Max Temperature 67 °F 74 °F 88 °F (2004)
Min Temperature 59 °F 54 °F 44 °F (2010)
Degree Days  
Heating Degree Days 2 3  
Month to date heating degree days 45 86  
Since 1 July heating degree days 860 1178  
Cooling Degree Days 0 1  
Month to date cooling degree days 34 20  
Year to date cooling degree days 82 42  
Growing Degree Days 12 (Base 50)    
Moisture  
Dew Point 54 °F    
Average Humidity 73    
Maximum Humidity 87    
Minimum Humidity 58    
Precipitation  
Precipitation 0.02 in 0.04 in 0.02 in (2012)
Month to date precipitation 0.34 0.68  
Year to date precipitation 3.37 9.12  
Since 1 July precipitation 6.04  
Snow  
Snow 0.00 in - - ()
Month to date snowfall 0.0  
Year to date snowfall 0.0  
Snow Depth 0.00 in    
Sea Level Pressure  
Sea Level Pressure 30.01 in    
Wind  
Wind Speed 4 mph (SW)    
Max Wind Speed 12 mph    
Max Gust Speed 15 mph    
Visibility 7 miles    
Events Rain    
T = Trace of Precipitation, MM = Missing Value Source: NWS Daily Summary

Daily Weather History Graph

Daily Weather History Graph

Search for Another Location

Airport or City:

Trip Planner

Search our weather history database for the weather conditions in past years. The results will help you decide how hot, cold, wet, or windy it might be!

Date:

Astronomy

Apr. 23, 2012 Rise Set
Actual Time 6:10 AM PDT 7:29 PM PDT
Civil Twilight 5:44 AM PDT 7:55 PM PDT
Nautical Twilight 5:13 AM PDT 8:27 PM PDT
Astronomical Twilight 4:41 AM PDT 8:59 PM PDT
Moon 7:31 AM PDT (4/23) 9:57 PM PDT (4/23)
Length of Visible Light 14h 11m
Length of Day
13h 18m
Waxing Crescent, 5% of the Moon is Illuminated
Apr 23
Waxing Crescent
Apr 29
First Quarter
May 5
Full
May 12
Last Quarter
May 20
New

Hourly Weather History & Observations

Time (PDT) Temp. Dew Point Humidity Pressure Visibility Wind Dir Wind Speed Gust Speed Precip Events Conditions
12:53 AM 60.1 °F 55.9 °F 86% 29.97 in 3.0 mi SSW 5.8 mph - N/A   Overcast
1:24 AM 60.8 °F 55.4 °F 82% 29.98 in 2.5 mi SW 4.6 mph - 0.00 in   Overcast
1:33 AM 60.8 °F 55.4 °F 82% 29.99 in 2.5 mi SSW 6.9 mph - 0.00 in Rain Light Rain
1:43 AM 60.8 °F 55.4 °F 82% 29.98 in 3.0 mi SSW 3.5 mph - 0.00 in Rain Light Rain
1:53 AM 60.1 °F 55.9 °F 86% 29.99 in 3.0 mi SW 4.6 mph - 0.00 in   Overcast
2:05 AM 60.8 °F 55.4 °F 82% 29.99 in 4.0 mi SW 4.6 mph - N/A   Haze
2:25 AM 60.8 °F 55.4 °F 82% 29.99 in 6.0 mi SSW 4.6 mph - N/A   Haze
2:53 AM 60.1 °F 55.0 °F 83% 29.99 in 6.0 mi Variable 3.5 mph - N/A   Haze
3:53 AM 59.0 °F 55.0 °F 87% 29.99 in 9.0 mi WSW 3.5 mph - N/A   Overcast
4:08 AM 59.0 °F 53.6 °F 82% 30.00 in 10.0 mi Calm Calm - N/A   Overcast
4:28 AM 59.0 °F 53.6 °F 82% 30.00 in 6.0 mi Calm Calm - N/A   Haze
4:51 AM 60.8 °F 55.4 °F 82% 30.00 in 5.0 mi Calm Calm - N/A   Haze
4:53 AM 60.1 °F 55.0 °F 83% 30.00 in 5.0 mi Calm Calm - N/A   Haze
5:12 AM 59.0 °F 55.4 °F 88% 30.00 in 4.0 mi Calm Calm - 0.00 in Rain Light Rain
5:53 AM 59.0 °F 55.0 °F 87% 30.00 in 6.0 mi Calm Calm - 0.00 in   Overcast
6:22 AM 59.0 °F 55.4 °F 88% 30.00 in 2.5 mi Calm Calm - 0.01 in   Overcast
6:29 AM 59.0 °F 55.4 °F 88% 30.01 in 3.0 mi Calm Calm - 0.01 in   Overcast
6:36 AM 59.0 °F 55.4 °F 88% 30.01 in 1.8 mi Calm Calm - 0.01 in   Overcast
6:53 AM 59.0 °F 55.0 °F 87% 30.01 in 2.0 mi Calm Calm - 0.01 in   Overcast
7:01 AM 59.0 °F 55.4 °F 88% 30.01 in 1.5 mi Calm Calm - 0.00 in Rain Light Rain
7:53 AM 59.0 °F 55.0 °F 87% 30.01 in 1.5 mi WSW 3.5 mph - 0.00 in   Overcast
8:04 AM 59.0 °F 55.4 °F 88% 30.02 in 3.0 mi SW 3.5 mph - N/A   Overcast
8:16 AM 60.8 °F 55.4 °F 82% 30.02 in 4.0 mi SSW 3.5 mph - N/A   Overcast
8:28 AM 60.8 °F 55.4 °F 82% 30.01 in 7.0 mi Calm Calm - 0.01 in   Overcast
8:53 AM 61.0 °F 55.0 °F 81% 30.01 in 9.0 mi Calm Calm - 0.01 in   Overcast
9:17 AM 60.8 °F 55.4 °F 82% 30.02 in 10.0 mi Calm Calm - N/A   Overcast
9:53 AM 62.1 °F 54.0 °F 75% 30.02 in 10.0 mi Calm Calm - N/A   Overcast
10:53 AM 64.0 °F 54.0 °F 70% 30.03 in 10.0 mi Variable 5.8 mph - N/A   Overcast
11:53 AM 64.9 °F 52.0 °F 63% 30.02 in 10.0 mi SSW 6.9 mph - N/A   Overcast
12:53 PM 66.0 °F 52.0 °F 60% 30.03 in 10.0 mi SSW 5.8 mph - N/A   Overcast
1:53 PM 66.0 °F 51.1 °F 59% 30.03 in 10.0 mi SSW 5.8 mph - N/A   Overcast
2:53 PM 66.9 °F 51.1 °F 57% 30.03 in 10.0 mi South 6.9 mph - N/A   Overcast
3:27 PM 66.2 °F 51.8 °F 60% 30.02 in 10.0 mi SSW 9.2 mph - N/A   Overcast
3:53 PM 66.0 °F 51.1 °F 59% 30.01 in 10.0 mi SSW 5.8 mph - N/A   Overcast
4:18 PM 66.2 °F 51.8 °F 60% 30.01 in 10.0 mi Calm Calm - N/A   Overcast
4:53 PM 66.0 °F 51.1 °F 59% 30.01 in 10.0 mi SSW 6.9 mph - N/A   Overcast
5:53 PM 64.9 °F 51.1 °F 61% 30.00 in 10.0 mi Variable 5.8 mph - N/A   Overcast
6:35 PM 64.4 °F 50.0 °F 59% 30.00 in 10.0 mi SSW 5.8 mph - N/A   Overcast
6:53 PM 64.0 °F 50.0 °F 60% 29.99 in 10.0 mi SW 3.5 mph - N/A   Overcast
7:53 PM 63.0 °F 52.0 °F 67% 30.01 in 10.0 mi SSW 4.6 mph - N/A   Overcast
8:53 PM 63.0 °F 52.0 °F 67% 30.02 in 10.0 mi South 3.5 mph - N/A   Overcast
9:53 PM 63.0 °F 52.0 °F 67% 30.03 in 10.0 mi SSW 5.8 mph - N/A   Overcast
10:53 PM 63.0 °F 51.1 °F 65% 30.06 in 10.0 mi SW 5.8 mph - N/A   Overcast
11:00 PM 62.6 °F 51.8 °F 68% 30.06 in 10.0 mi SW 3.5 mph - N/A   Overcast
11:50 PM 62.6 °F 51.8 °F 68% 30.06 in 10.0 mi Calm Calm - N/A   Overcast
11:53 PM 63.0 °F 51.1 °F 65% 30.06 in 10.0 mi Calm Calm - N/A   Overcast